SCP
0 0 0 0 0 0 0 0 0 0 0 0 0 0 0 0 0 0 0 0 0 0
0 0 0 0 0 0 0 0 0 0 0 0 0 0 0 0 0 0 0 0 0 0
0 0 0 0 0 0 0 0 0 0 0 0 0 0 0 0 0 0 0 0 0 0
0 0 0 0 0 0 0 0 0 0 0 0 0 0 0 0 0 0 0 0 0 0
0 0 0 0 0 0 0 0 0 0 0 0 0 0 0 0 0 0 0 0 0 0
0 0 0 0 0 0 0 0 0 0 0 0 0 0 0 0 0 0 0 0 0 0
0 0 0 0 0 0 0 0 0 0 0 0 0 0 0 0 0 0 0 0 0 0
0 0 0 0 0 0 0 0 0 0 0 0 0 0 0 0 0 0 0 0 0 0
0 0 0 0 0 0 0 0 0 0 0 0 0 0 0 0 0 0 0 0 0 0
0 0 0 0 0 0 0 0 0 0 0 0 0 0 0 0 0 0 0 0 0 0
0 0 0 0 0 0 0 0 0 0 0 0 0 0 0 0 0 0 0 0 0 0
0 0 0 0 0 0 0 0 0 0 0 0 0 0 0 0 0 0 0 0 0 0
0 0 0 0 0 0 0 0 0 0 0 0 0 0 0 0 0 0 0 0 0 0
0 0 0 0 0 0 0 0 0 0 0 0 0 0 0 0 0 0 0 0 0 0
Wind_Speed_500mb
51 51 53 56 55 53 57 59 60 65 63 57 51 54 57 55 53 49 44 41 35 27
49 51 53 54 57 57 59 60 61 59 56 51 52 54 55 54 51 48 44 33 30 29
46 51 54 53 54 60 61 62 60 61 56 58 61 56 50 51 51 42 32 29 30 30
51 54 53 55 53 56 60 62 64 63 67 67 62 52 56 55 46 32 32 32 32 32
50 54 52 52 52 54 61 65 68 69 68 67 54 58 58 48 36 36 36 32 31 29
51 54 53 53 53 57 66 69 72 73 74 67 63 56 57 49 41 42 35 32 24 13
54 54 57 55 56 63 70 74 78 83 77 68 69 67 67 47 51 43 32 23 25 28
58 56 58 59 60 66 75 78 86 79 76 77 67 75 64 47 48 35 34 33 36 37
67 62 61 63 64 72 79 83 79 79 76 69 82 72 58 53 42 45 40 40 46 36
73 71 67 66 70 79 84 89 91 89 75 83 77 72 64 47 51 47 45 50 44 36
80 76 71 73 75 82 89 95 102 85 83 88 83 83 62 57 56 51 51 52 46 36
85 81 80 79 81 84 93 105 100 91 90 88 84 82 76 61 54 53 57 55 49 41
86 86 85 80 83 87 98 107 97 90 94 88 90 84 67 70 52 59 62 59 52 47
88 85 82 84 86 88 100 109 98 99 97 89 93 86 82 62 58 63 65 61 56 52
Wind_Direction_500mb
221 224 226 231 235 232 233 231 227 212 207 200 196 196 193 188 181 175 172 164 157 152
222 222 226 228 232 234 231 225 218 212 193 186 188 184 180 177 176 168 162 159 152 148
227 226 226 228 231 228 226 220 211 198 186 184 180 178 179 179 169 166 165 158 151 146
228 225 226 228 229 226 221 213 200 187 184 185 182 184 190 175 169 170 169 161 154 147
229 225 227 226 225 220 211 200 191 189 189 184 188 191 178 178 179 175 169 159 160 155
230 226 227 225 221 211 203 198 193 193 187 188 190 192 196 186 180 170 167 169 165 182
232 229 229 226 220 212 204 200 195 188 194 194 189 194 185 183 176 172 181 188 193 194
229 228 228 226 220 210 202 199 193 199 195 187 193 190 186 180 179 191 197 197 201 202
226 224 225 224 216 208 204 200 204 195 192 198 195 188 197 189 195 208 201 204 207 201
225 224 222 222 216 209 207 203 199 194 201 199 195 205 196 199 225 203 201 211 208 209
227 223 221 220 217 212 209 203 197 202 198 201 201 199 205 219 230 203 210 212 213 215
228 225 220 219 217 212 207 202 202 208 201 201 206 207 211 223 213 203 215 214 217 220
228 226 224 221 219 213 209 206 206 207 204 208 209 207 215 228 226 208 217 220 220 222
228 226 225 223 219 217 212 207 212 204 212 205 213 211 220 226 241 215 223 223 227 227
Wind_Speed_850mb
51 51 53 56 55 53 57 59 60 65 63 57 51 54 57 55 53 49 44 41 35 27
49 51 53 54 57 57 59 60 61 59 56 51 52 54 55 54 51 48 44 33 30 29
46 51 54 53 54 60 61 62 60 61 56 58 61 56 50 51 51 42 32 29 30 30
51 54 53 55 53 56 60 62 64 63 67 67 62 52 56 55 46 32 32 32 32 32
50 54 52 52 52 54 61 65 68 69 68 67 54 58 58 48 36 36 36 32 31 29
51 54 53 53 53 57 66 69 72 73 74 67 63 56 57 49 41 42 35 32 24 13
54 54 57 55 56 63 70 74 78 83 77 68 69 67 67 47 51 43 32 23 25 28
58 56 58 59 60 66 75 78 86 79 76 77 67 75 64 47 48 35 34 33 36 37
67 62 61 63 64 72 79 83 79 79 76 69 82 72 58 53 42 45 40 40 46 36
73 71 67 66 70 79 84 89 91 89 75 83 77 72 64 47 51 47 45 50 44 36
80 76 71 73 75 82 89 95 102 85 83 88 83 83 62 57 56 51 51 52 46 36
85 81 80 79 81 84 93 105 100 91 90 88 84 82 76 61 54 53 57 55 49 41
86 86 85 80 83 87 98 107 97 90 94 88 90 84 67 70 52 59 62 59 52 47
88 85 82 84 86 88 100 109 98 99 97 89 93 86 82 62 58 63 65 61 56 52
Wind_Direction_850mb
221 224 226 231 235 232 233 231 227 212 207 200 196 196 193 188 181 175 172 164 157 152
222 222 226 228 232 234 231 225 218 212 193 186 188 184 180 177 176 168 162 159 152 148
227 226 226 228 231 228 226 220 211 198 186 184 180 178 179 179 169 166 165 158 151 146
228 225 226 228 229 226 221 213 200 187 184 185 182 184 190 175 169 170 169 161 154 147
229 225 227 226 225 220 211 200 191 189 189 184 188 191 178 178 179 175 169 159 160 155
230 226 227 225 221 211 203 198 193 193 187 188 190 192 196 186 180 170 167 169 165 182
232 229 229 226 220 212 204 200 195 188 194 194 189 194 185 183 176 172 181 188 193 194
229 228 228 226 220 210 202 199 193 199 195 187 193 190 186 180 179 191 197 197 201 202
226 224 225 224 216 208 204 200 204 195 192 198 195 188 197 189 195 208 201 204 207 201
225 224 222 222 216 209 207 203 199 194 201 199 195 205 196 199 225 203 201 211 208 209
227 223 221 220 217 212 209 203 197 202 198 201 201 199 205 219 230 203 210 212 213 215
228 225 220 219 217 212 207 202 202 208 201 201 206 207 211 223 213 203 215 214 217 220
228 226 224 221 219 213 209 206 206 207 204 208 209 207 215 228 226 208 217 220 220 222
228 226 225 223 219 217 212 207 212 204 212 205 213 211 220 226 241 215 223 223 227 227